owner,sensor,date,latitude,longitude,vertical_datum,wind_speed,wind_to_direction,wind_speed_of_gust,qcFlag 
LOOP,urn:ioos:station:wmo:lopl1:1,2012-03-01T00:08:00Z,28.8850,-90.0250,10.0,5.5,167.0,6.1,'11111222,11111222,11111222' 
LOOP,urn:ioos:station:wmo:lopl1:1,2012-03-01T00:23:00Z,28.8850,-90.0250,10.0,5.6,168.0,6.1,'11111222,11111222,11111222' 
LOOP,urn:ioos:station:wmo:lopl1:1,2012-03-01T00:38:00Z,28.8850,-90.0250,10.0,6.3,169.0,7.2,'11111222,11111222,11111222' 
LOOP,urn:ioos:station:wmo:lopl1:1,2012-03-01T00:53:00Z,28.8850,-90.0250,10.0,6.4,175.0,6.9,'11111222,11111222,11111222' 
LOOP,urn:ioos:station:wmo:lopl1:1,2012-03-01T01:08:00Z,28.8850,-90.0250,10.0,6.1,173.0,6.5,'11111222,11111222,11111222' 
LOOP,urn:ioos:station:wmo:lopl1:1,2012-03-01T01:23:00Z,28.8850,-90.0250,10.0,6.2,175.0,6.7,'11111222,11111222,11111222' 
LOOP,urn:ioos:station:wmo:lopl1:1,2012-03-01T01:38:00Z,28.8850,-90.0250,10.0,6.4,176.0,6.8,'11111222,11111222,11111222' 
LOOP,urn:ioos:station:wmo:lopl1:1,2012-03-01T01:53:00Z,28.8850,-90.0250,10.0,6.8,174.0,7.1,'11111222,11111222,11111222' 
LOOP,urn:ioos:station:wmo:lopl1:1,2012-03-01T02:13:00Z,28.8850,-90.0250,10.0,7.1,174.0,7.5,'11111222,11111222,11111222' 
LOOP,urn:ioos:station:wmo:lopl1:1,2012-03-01T02:28:00Z,28.8850,-90.0250,10.0,6.9,178.0,7.3,'11111222,11111222,11111222' 
LOOP,urn:ioos:station:wmo:lopl1:1,2012-03-01T02:43:00Z,28.8850,-90.0250,10.0,6.8,183.0,7.5,'11111222,11111222,11111222' 
LOOP,urn:ioos:station:wmo:lopl1:1,2012-03-01T02:58:00Z,28.8850,-90.0250,10.0,6.6,181.0,7.3,'11111222,11111222,11111222' 
LOOP,urn:ioos:station:wmo:lopl1:1,2012-03-01T03:13:00Z,28.8850,-90.0250,10.0,6.7,185.0,7.2,'11111222,11111222,11111222' 
LOOP,urn:ioos:station:wmo:lopl1:1,2012-03-01T03:28:00Z,28.8850,-90.0250,10.0,7.1,185.0,8.0,'11111222,11111222,11111222' 
LOOP,urn:ioos:station:wmo:lopl1:1,2012-03-01T03:43:00Z,28.8850,-90.0250,10.0,8.3,187.0,9.1,'11111222,11111222,11111222' 
LOOP,urn:ioos:station:wmo:lopl1:1,2012-03-01T03:58:00Z,28.8850,-90.0250,10.0,8.6,193.0,9.4,'11111222,11111222,11111222' 
LOOP,urn:ioos:station:wmo:lopl1:1,2012-03-01T04:13:00Z,28.8850,-90.0250,10.0,8.4,189.0,9.6,'11111222,11111222,11111222' 
LOOP,urn:ioos:station:wmo:lopl1:1,2012-03-01T04:28:00Z,28.8850,-90.0250,10.0,8.6,196.0,9.6,'11111222,11111222,11111222' 
LOOP,urn:ioos:station:wmo:lopl1:1,2012-03-01T04:43:00Z,28.8850,-90.0250,10.0,8.1,195.0,9.5,'11111222,11111222,11111222' 
LOOP,urn:ioos:station:wmo:lopl1:1,2012-03-01T04:58:00Z,28.8850,-90.0250,10.0,7.9,193.0,9.1,'11111222,11111222,11111222' 
LOOP,urn:ioos:station:wmo:lopl1:1,2012-03-01T05:13:00Z,28.8850,-90.0250,10.0,9.1,190.0,10.3,'11111222,11111222,11111222' 
LOOP,urn:ioos:station:wmo:lopl1:1,2012-03-01T05:28:00Z,28.8850,-90.0250,10.0,8.7,194.0,10.5,'11111222,11111222,11111222' 
LOOP,urn:ioos:station:wmo:lopl1:1,2012-03-01T05:43:00Z,28.8850,-90.0250,10.0,8.3,195.0,9.5,'11111222,11111222,11111222' 
LOOP,urn:ioos:station:wmo:lopl1:1,2012-03-01T05:58:00Z,28.8850,-90.0250,10.0,8.6,195.0,9.6,'11111222,11111222,11111222' 
LOOP,urn:ioos:station:wmo:lopl1:1,2012-03-01T06:14:00Z,28.8850,-90.0250,10.0,8.8,199.0,9.5,'11111222,11111222,11111222' 
LOOP,urn:ioos:station:wmo:lopl1:1,2012-03-01T06:29:00Z,28.8850,-90.0250,10.0,8.0,203.0,8.8,'11111222,11111222,11111222' 
LOOP,urn:ioos:station:wmo:lopl1:1,2012-03-01T06:44:00Z,28.8850,-90.0250,10.0,8.8,210.0,9.9,'11111222,11111222,11111222' 
LOOP,urn:ioos:station:wmo:lopl1:1,2012-03-01T06:59:00Z,28.8850,-90.0250,10.0,8.2,205.0,9.2,'11111222,11111222,11111222' 
LOOP,urn:ioos:station:wmo:lopl1:1,2012-03-01T07:14:00Z,28.8850,-90.0250,10.0,8.0,201.0,8.9,'11111222,11111222,11111222' 
LOOP,urn:ioos:station:wmo:lopl1:1,2012-03-01T07:29:00Z,28.8850,-90.0250,10.0,8.0,201.0,8.6,'11111222,11111222,11111222' 
LOOP,urn:ioos:station:wmo:lopl1:1,2012-03-01T07:44:00Z,28.8850,-90.0250,10.0,8.7,203.0,9.1,'11111222,11111222,11111222' 
LOOP,urn:ioos:station:wmo:lopl1:1,2012-03-01T07:59:00Z,28.8850,-90.0250,10.0,8.4,201.0,9.0,'11111222,11111222,11111222' 
LOOP,urn:ioos:station:wmo:lopl1:1,2012-03-01T08:19:00Z,28.8850,-90.0250,10.0,7.6,200.0,8.9,'11111222,11111222,11111222' 
LOOP,urn:ioos:station:wmo:lopl1:1,2012-03-01T08:34:00Z,28.8850,-90.0250,10.0,7.9,204.0,8.8,'11111222,11111222,11111222' 
LOOP,urn:ioos:station:wmo:lopl1:1,2012-03-01T08:49:00Z,28.8850,-90.0250,10.0,7.5,204.0,8.4,'11111222,11111222,11111222' 
LOOP,urn:ioos:station:wmo:lopl1:1,2012-03-01T09:04:00Z,28.8850,-90.0250,10.0,7.6,201.0,8.4,'11111222,11111222,11111222' 
LOOP,urn:ioos:station:wmo:lopl1:1,2012-03-01T09:19:00Z,28.8850,-90.0250,10.0,6.8,207.0,7.4,'11111222,11111222,11111222' 
LOOP,urn:ioos:station:wmo:lopl1:1,2012-03-01T09:34:00Z,28.8850,-90.0250,10.0,7.0,208.0,7.5,'11111222,11111222,11111222' 
LOOP,urn:ioos:station:wmo:lopl1:1,2012-03-01T09:49:00Z,28.8850,-90.0250,10.0,6.8,213.0,7.4,'11111222,11111222,11111222' 
LOOP,urn:ioos:station:wmo:lopl1:1,2012-03-01T10:04:00Z,28.8850,-90.0250,10.0,6.3,216.0,6.7,'11111222,11111222,11111222' 
LOOP,urn:ioos:station:wmo:lopl1:1,2012-03-01T10:19:00Z,28.8850,-90.0250,10.0,6.8,210.0,7.1,'11111222,11111222,11111222' 
LOOP,urn:ioos:station:wmo:lopl1:1,2012-03-01T10:34:00Z,28.8850,-90.0250,10.0,6.9,210.0,7.6,'11111222,11111222,11111222' 
LOOP,urn:ioos:station:wmo:lopl1:1,2012-03-01T10:49:00Z,28.8850,-90.0250,10.0,7.1,206.0,7.5,'11111222,11111222,11111222' 
LOOP,urn:ioos:station:wmo:lopl1:1,2012-03-01T11:04:00Z,28.8850,-90.0250,10.0,7.8,211.0,8.2,'11111222,11111222,11111222' 
LOOP,urn:ioos:station:wmo:lopl1:1,2012-03-01T11:19:00Z,28.8850,-90.0250,10.0,6.7,206.0,7.2,'11111222,11111222,11111222' 
LOOP,urn:ioos:station:wmo:lopl1:1,2012-03-01T11:34:00Z,28.8850,-90.0250,10.0,6.6,211.0,7.1,'11111222,11111222,11111222' 
LOOP,urn:ioos:station:wmo:lopl1:1,2012-03-01T11:49:00Z,28.8850,-90.0250,10.0,6.5,204.0,7.0,'11111222,11111222,11111222' 
LOOP,urn:ioos:station:wmo:lopl1:1,2012-03-01T12:04:00Z,28.8850,-90.0250,10.0,6.1,208.0,6.9,'11111222,11111222,11111222' 
LOOP,urn:ioos:station:wmo:lopl1:1,2012-03-01T12:19:00Z,28.8850,-90.0250,10.0,5.8,205.0,7.4,'11111222,11111222,11111222' 
LOOP,urn:ioos:station:wmo:lopl1:1,2012-03-01T12:34:00Z,28.8850,-90.0250,10.0,5.7,207.0,6.3,'11111222,11111222,11111222' 
LOOP,urn:ioos:station:wmo:lopl1:1,2012-03-01T12:49:00Z,28.8850,-90.0250,10.0,4.8,206.0,5.7,'11111222,11111222,11111222' 
LOOP,urn:ioos:station:wmo:lopl1:1,2012-03-01T13:04:00Z,28.8850,-90.0250,10.0,5.1,200.0,6.0,'11111222,11111222,11111222' 
LOOP,urn:ioos:station:wmo:lopl1:1,2012-03-01T13:19:00Z,28.8850,-90.0250,10.0,6.3,195.0,6.8,'11111222,11111222,11111222' 
LOOP,urn:ioos:station:wmo:lopl1:1,2012-03-01T13:34:00Z,28.8850,-90.0250,10.0,7.3,198.0,7.9,'11111222,11111222,11111222' 
LOOP,urn:ioos:station:wmo:lopl1:1,2012-03-01T13:49:00Z,28.8850,-90.0250,10.0,6.6,198.0,7.9,'11111222,11111222,11111222' 
LOOP,urn:ioos:station:wmo:lopl1:1,2012-03-01T14:04:00Z,28.8850,-90.0250,10.0,6.3,204.0,7.1,'11111222,11111222,11111222' 
LOOP,urn:ioos:station:wmo:lopl1:1,2012-03-01T14:19:00Z,28.8850,-90.0250,10.0,7.0,193.0,8.2,'11111222,11111222,11111222' 
LOOP,urn:ioos:station:wmo:lopl1:1,2012-03-01T14:34:00Z,28.8850,-90.0250,10.0,7.4,197.0,8.1,'11111222,11111222,11111222' 
LOOP,urn:ioos:station:wmo:lopl1:1,2012-03-01T14:49:00Z,28.8850,-90.0250,10.0,6.8,190.0,7.8,'11111222,11111222,11111222' 
LOOP,urn:ioos:station:wmo:lopl1:1,2012-03-01T15:04:00Z,28.8850,-90.0250,10.0,7.7,195.0,8.5,'11111222,11111222,11111222' 
LOOP,urn:ioos:station:wmo:lopl1:1,2012-03-01T15:19:00Z,28.8850,-90.0250,10.0,7.9,195.0,8.6,'11111222,11111222,11111222' 
LOOP,urn:ioos:station:wmo:lopl1:1,2012-03-01T15:34:00Z,28.8850,-90.0250,10.0,7.7,191.0,8.4,'11111222,11111222,11111222' 
LOOP,urn:ioos:station:wmo:lopl1:1,2012-03-01T15:49:00Z,28.8850,-90.0250,10.0,8.4,194.0,8.8,'11111222,11111222,11111222' 
LOOP,urn:ioos:station:wmo:lopl1:1,2012-03-01T16:04:00Z,28.8850,-90.0250,10.0,8.4,188.0,9.0,'11111222,11111222,11111222' 
LOOP,urn:ioos:station:wmo:lopl1:1,2012-03-01T16:19:00Z,28.8850,-90.0250,10.0,9.0,193.0,9.7,'11111222,11111222,11111222' 
LOOP,urn:ioos:station:wmo:lopl1:1,2012-03-01T16:39:00Z,28.8850,-90.0250,10.0,9.7,188.0,10.0,'11111222,11111222,11111222' 
LOOP,urn:ioos:station:wmo:lopl1:1,2012-03-01T16:54:00Z,28.8850,-90.0250,10.0,10.1,186.0,10.6,'11111222,11111222,11111222' 
LOOP,urn:ioos:station:wmo:lopl1:1,2012-03-01T17:09:00Z,28.8850,-90.0250,10.0,10.5,183.0,11.1,'11111222,11111222,11111222' 
LOOP,urn:ioos:station:wmo:lopl1:1,2012-03-01T17:24:00Z,28.8850,-90.0250,10.0,9.6,183.0,10.5,'11111222,11111222,11111222' 
LOOP,urn:ioos:station:wmo:lopl1:1,2012-03-01T17:39:00Z,28.8850,-90.0250,10.0,8.8,188.0,9.7,'11111222,11111222,11111222' 
LOOP,urn:ioos:station:wmo:lopl1:1,2012-03-01T17:54:00Z,28.8850,-90.0250,10.0,8.8,189.0,9.9,'11111222,11111222,11111222' 
LOOP,urn:ioos:station:wmo:lopl1:1,2012-03-01T18:09:00Z,28.8850,-90.0250,10.0,8.9,188.0,10.2,'11111222,11111222,11111222' 
LOOP,urn:ioos:station:wmo:lopl1:1,2012-03-01T18:24:00Z,28.8850,-90.0250,10.0,8.6,190.0,9.6,'11111222,11111222,11111222' 
LOOP,urn:ioos:station:wmo:lopl1:1,2012-03-01T18:39:00Z,28.8850,-90.0250,10.0,9.1,193.0,10.0,'11111222,11111222,11111222' 
LOOP,urn:ioos:station:wmo:lopl1:1,2012-03-01T18:54:00Z,28.8850,-90.0250,10.0,8.5,191.0,8.9,'11111222,11111222,11111222' 
LOOP,urn:ioos:station:wmo:lopl1:1,2012-03-01T19:09:00Z,28.8850,-90.0250,10.0,9.1,193.0,9.6,'11111222,11111222,11111222' 
LOOP,urn:ioos:station:wmo:lopl1:1,2012-03-01T19:24:00Z,28.8850,-90.0250,10.0,8.8,197.0,9.3,'11111222,11111222,11111222' 
LOOP,urn:ioos:station:wmo:lopl1:1,2012-03-01T19:39:00Z,28.8850,-90.0250,10.0,9.2,194.0,10.0,'11111222,11111222,11111222' 
LOOP,urn:ioos:station:wmo:lopl1:1,2012-03-01T19:54:00Z,28.8850,-90.0250,10.0,8.2,196.0,9.1,'11111222,11111222,11111222' 
LOOP,urn:ioos:station:wmo:lopl1:1,2012-03-01T20:09:00Z,28.8850,-90.0250,10.0,7.0,202.0,7.6,'11111222,11111222,11111222' 
LOOP,urn:ioos:station:wmo:lopl1:1,2012-03-01T20:24:00Z,28.8850,-90.0250,10.0,7.7,199.0,8.7,'11111222,11111222,11111222' 
LOOP,urn:ioos:station:wmo:lopl1:1,2012-03-01T20:39:00Z,28.8850,-90.0250,10.0,8.9,200.0,9.6,'11111222,11111222,11111222' 
LOOP,urn:ioos:station:wmo:lopl1:1,2012-03-01T20:54:00Z,28.8850,-90.0250,10.0,7.5,187.0,8.5,'11111222,11111222,11111222' 
LOOP,urn:ioos:station:wmo:lopl1:1,2012-03-01T21:09:00Z,28.8850,-90.0250,10.0,8.4,193.0,9.1,'11111222,11111222,11111222' 
LOOP,urn:ioos:station:wmo:lopl1:1,2012-03-01T21:24:00Z,28.8850,-90.0250,10.0,8.1,189.0,9.1,'11111222,11111222,11111222' 
LOOP,urn:ioos:station:wmo:lopl1:1,2012-03-01T21:39:00Z,28.8850,-90.0250,10.0,8.3,193.0,9.0,'11111222,11111222,11111222' 
LOOP,urn:ioos:station:wmo:lopl1:1,2012-03-01T21:54:00Z,28.8850,-90.0250,10.0,7.8,190.0,8.6,'11111222,11111222,11111222' 
LOOP,urn:ioos:station:wmo:lopl1:1,2012-03-01T22:09:00Z,28.8850,-90.0250,10.0,7.6,188.0,8.4,'11111222,11111222,11111222' 
LOOP,urn:ioos:station:wmo:lopl1:1,2012-03-01T22:24:00Z,28.8850,-90.0250,10.0,7.9,194.0,8.6,'11111222,11111222,11111222' 
LOOP,urn:ioos:station:wmo:lopl1:1,2012-03-01T22:39:00Z,28.8850,-90.0250,10.0,7.6,194.0,8.6,'11111222,11111222,11111222' 
LOOP,urn:ioos:station:wmo:lopl1:1,2012-03-01T22:54:00Z,28.8850,-90.0250,10.0,8.6,197.0,9.6,'11111222,11111222,11111222' 
LOOP,urn:ioos:station:wmo:lopl1:1,2012-03-01T23:09:00Z,28.8850,-90.0250,10.0,7.2,192.0,8.4,'11111222,11111222,11111222' 
LOOP,urn:ioos:station:wmo:lopl1:1,2012-03-01T23:24:00Z,28.8850,-90.0250,10.0,7.8,191.0,8.9,'11111222,11111222,11111222' 
LOOP,urn:ioos:station:wmo:lopl1:1,2012-03-01T23:39:00Z,28.8850,-90.0250,10.0,8.0,186.0,8.8,'11111222,11111222,11111222' 
LOOP,urn:ioos:station:wmo:lopl1:1,2012-03-01T23:54:00Z,28.8850,-90.0250,10.0,7.6,190.0,8.2,'11111222,11111222,11111222' 
LOOP,urn:ioos:station:wmo:lopl1:1,2012-03-02T00:09:00Z,28.8850,-90.0250,10.0,7.0,189.0,7.7,'11111222,11111222,11111222' 
LOOP,urn:ioos:station:wmo:lopl1:1,2012-03-02T00:24:00Z,28.8850,-90.0250,10.0,7.5,186.0,8.0,'11111222,11111222,11111222' 
LOOP,urn:ioos:station:wmo:lopl1:1,2012-03-02T00:44:00Z,28.8850,-90.0250,10.0,7.6,177.0,8.3,'11111222,11111222,11111222' 
LOOP,urn:ioos:station:wmo:lopl1:1,2012-03-02T00:59:00Z,28.8850,-90.0250,10.0,7.5,183.0,9.1,'11111222,11111222,11111222' 
LOOP,urn:ioos:station:wmo:lopl1:1,2012-03-02T01:14:00Z,28.8850,-90.0250,10.0,7.9,178.0,9.0,'11111222,11111222,11111222' 
LOOP,urn:ioos:station:wmo:lopl1:1,2012-03-02T01:29:00Z,28.8850,-90.0250,10.0,8.5,177.0,9.6,'11111222,11111222,11111222' 
LOOP,urn:ioos:station:wmo:lopl1:1,2012-03-02T01:44:00Z,28.8850,-90.0250,10.0,8.7,179.0,10.0,'11111222,11111222,11111222' 
LOOP,urn:ioos:station:wmo:lopl1:1,2012-03-02T01:59:00Z,28.8850,-90.0250,10.0,9.2,176.0,10.5,'11111222,11111222,11111222' 
LOOP,urn:ioos:station:wmo:lopl1:1,2012-03-02T02:14:00Z,28.8850,-90.0250,10.0,9.6,183.0,11.0,'11111222,11111222,11111222' 
LOOP,urn:ioos:station:wmo:lopl1:1,2012-03-02T02:29:00Z,28.8850,-90.0250,10.0,9.4,182.0,10.8,'11111222,11111222,11111222' 
LOOP,urn:ioos:station:wmo:lopl1:1,2012-03-02T02:44:00Z,28.8850,-90.0250,10.0,9.4,184.0,10.6,'11111222,11111222,11111222' 
LOOP,urn:ioos:station:wmo:lopl1:1,2012-03-02T02:59:00Z,28.8850,-90.0250,10.0,9.5,180.0,10.8,'11111222,11111222,11111222' 
LOOP,urn:ioos:station:wmo:lopl1:1,2012-03-02T03:14:00Z,28.8850,-90.0250,10.0,9.5,178.0,10.9,'11111222,11111222,11111222' 
LOOP,urn:ioos:station:wmo:lopl1:1,2012-03-02T03:29:00Z,28.8850,-90.0250,10.0,9.7,178.0,10.8,'11111222,11111222,11111222' 
LOOP,urn:ioos:station:wmo:lopl1:1,2012-03-02T03:44:00Z,28.8850,-90.0250,10.0,9.6,183.0,10.9,'11111222,11111222,11111222' 
LOOP,urn:ioos:station:wmo:lopl1:1,2012-03-02T03:59:00Z,28.8850,-90.0250,10.0,9.8,181.0,11.1,'11111222,11111222,11111222' 
LOOP,urn:ioos:station:wmo:lopl1:1,2012-03-02T04:14:00Z,28.8850,-90.0250,10.0,10.3,177.0,11.3,'11111222,11111222,11111222' 
LOOP,urn:ioos:station:wmo:lopl1:1,2012-03-02T04:29:00Z,28.8850,-90.0250,10.0,10.6,179.0,11.8,'11111222,11111222,11111222' 
LOOP,urn:ioos:station:wmo:lopl1:1,2012-03-02T04:44:00Z,28.8850,-90.0250,10.0,10.8,181.0,12.2,'11111222,11111222,11111222' 
LOOP,urn:ioos:station:wmo:lopl1:1,2012-03-02T04:59:00Z,28.8850,-90.0250,10.0,11.2,180.0,12.7,'11111222,11111222,11111222' 
LOOP,urn:ioos:station:wmo:lopl1:1,2012-03-02T05:14:00Z,28.8850,-90.0250,10.0,11.1,180.0,12.5,'11111222,11111222,11111222' 
LOOP,urn:ioos:station:wmo:lopl1:1,2012-03-02T05:29:00Z,28.8850,-90.0250,10.0,11.1,183.0,13.9,'11111222,11111222,11111222' 
LOOP,urn:ioos:station:wmo:lopl1:1,2012-03-02T05:44:00Z,28.8850,-90.0250,10.0,12.0,182.0,13.4,'11111222,11111222,11111222' 
LOOP,urn:ioos:station:wmo:lopl1:1,2012-03-02T05:59:00Z,28.8850,-90.0250,10.0,11.7,178.0,12.7,'11111222,11111222,11111222' 
LOOP,urn:ioos:station:wmo:lopl1:1,2012-03-02T06:14:00Z,28.8850,-90.0250,10.0,11.3,183.0,13.2,'11111222,11111222,11111222' 
LOOP,urn:ioos:station:wmo:lopl1:1,2012-03-02T06:29:00Z,28.8850,-90.0250,10.0,11.6,181.0,12.7,'11111222,11111222,11111222' 
LOOP,urn:ioos:station:wmo:lopl1:1,2012-03-02T06:44:00Z,28.8850,-90.0250,10.0,11.7,186.0,12.9,'11111222,11111222,11111222' 
LOOP,urn:ioos:station:wmo:lopl1:1,2012-03-02T06:59:00Z,28.8850,-90.0250,10.0,10.2,182.0,11.0,'11111222,11111222,11111222' 
LOOP,urn:ioos:station:wmo:lopl1:1,2012-03-02T07:14:00Z,28.8850,-90.0250,10.0,10.5,181.0,11.5,'11111222,11111222,11111222' 
LOOP,urn:ioos:station:wmo:lopl1:1,2012-03-02T07:29:00Z,28.8850,-90.0250,10.0,10.3,183.0,11.4,'11111222,11111222,11111222' 
LOOP,urn:ioos:station:wmo:lopl1:1,2012-03-02T07:44:00Z,28.8850,-90.0250,10.0,10.1,181.0,10.9,'11111222,11111222,11111222' 
LOOP,urn:ioos:station:wmo:lopl1:1,2012-03-02T07:59:00Z,28.8850,-90.0250,10.0,9.3,182.0,10.0,'11111222,11111222,11111222' 
LOOP,urn:ioos:station:wmo:lopl1:1,2012-03-02T08:14:00Z,28.8850,-90.0250,10.0,9.3,185.0,9.9,'11111222,11111222,11111222' 
LOOP,urn:ioos:station:wmo:lopl1:1,2012-03-02T08:34:00Z,28.8850,-90.0250,10.0,9.1,187.0,10.0,'11111222,11111222,11111222' 
LOOP,urn:ioos:station:wmo:lopl1:1,2012-03-02T08:49:00Z,28.8850,-90.0250,10.0,8.9,188.0,9.4,'11111222,11111222,11111222' 
LOOP,urn:ioos:station:wmo:lopl1:1,2012-03-02T09:04:00Z,28.8850,-90.0250,10.0,9.5,188.0,10.2,'11111222,11111222,11111222' 
LOOP,urn:ioos:station:wmo:lopl1:1,2012-03-02T09:19:00Z,28.8850,-90.0250,10.0,9.8,188.0,11.5,'11111222,11111222,11111222' 
LOOP,urn:ioos:station:wmo:lopl1:1,2012-03-02T09:34:00Z,28.8850,-90.0250,10.0,9.5,191.0,10.9,'11111222,11111222,11111222' 
LOOP,urn:ioos:station:wmo:lopl1:1,2012-03-02T09:49:00Z,28.8850,-90.0250,10.0,9.2,187.0,10.4,'11111222,11111222,11111222' 
LOOP,urn:ioos:station:wmo:lopl1:1,2012-03-02T10:04:00Z,28.8850,-90.0250,10.0,9.0,188.0,9.8,'11111222,11111222,11111222' 
LOOP,urn:ioos:station:wmo:lopl1:1,2012-03-02T10:19:00Z,28.8850,-90.0250,10.0,9.1,189.0,10.2,'11111222,11111222,11111222' 
LOOP,urn:ioos:station:wmo:lopl1:1,2012-03-02T10:34:00Z,28.8850,-90.0250,10.0,9.2,192.0,10.6,'11111222,11111222,11111222' 
LOOP,urn:ioos:station:wmo:lopl1:1,2012-03-02T10:49:00Z,28.8850,-90.0250,10.0,9.3,194.0,9.8,'11111222,11111222,11111222' 
LOOP,urn:ioos:station:wmo:lopl1:1,2012-03-02T11:04:00Z,28.8850,-90.0250,10.0,9.6,194.0,10.9,'11111222,11111222,11111222' 
LOOP,urn:ioos:station:wmo:lopl1:1,2012-03-02T11:19:00Z,28.8850,-90.0250,10.0,9.7,190.0,10.3,'11111222,11111222,11111222' 
LOOP,urn:ioos:station:wmo:lopl1:1,2012-03-02T11:34:00Z,28.8850,-90.0250,10.0,10.1,189.0,10.8,'11111222,11111222,11111222' 
LOOP,urn:ioos:station:wmo:lopl1:1,2012-03-02T11:49:00Z,28.8850,-90.0250,10.0,9.2,194.0,9.9,'11111222,11111222,11111222' 
LOOP,urn:ioos:station:wmo:lopl1:1,2012-03-02T12:04:00Z,28.8850,-90.0250,10.0,9.3,191.0,10.0,'11111222,11111222,11111222' 
LOOP,urn:ioos:station:wmo:lopl1:1,2012-03-02T12:19:00Z,28.8850,-90.0250,10.0,8.6,187.0,9.1,'11111222,11111222,11111222' 
LOOP,urn:ioos:station:wmo:lopl1:1,2012-03-02T12:34:00Z,28.8850,-90.0250,10.0,8.6,185.0,9.6,'11111222,11111222,11111222' 
LOOP,urn:ioos:station:wmo:lopl1:1,2012-03-02T12:49:00Z,28.8850,-90.0250,10.0,9.0,181.0,9.7,'11111222,11111222,11111222' 
LOOP,urn:ioos:station:wmo:lopl1:1,2012-03-02T13:04:00Z,28.8850,-90.0250,10.0,8.5,182.0,9.2,'11111222,11111222,11111222' 
LOOP,urn:ioos:station:wmo:lopl1:1,2012-03-02T13:19:00Z,28.8850,-90.0250,10.0,8.3,176.0,9.7,'11111222,11111222,11111222' 
LOOP,urn:ioos:station:wmo:lopl1:1,2012-03-02T13:34:00Z,28.8850,-90.0250,10.0,9.3,174.0,10.1,'11111222,11111222,11111222' 
LOOP,urn:ioos:station:wmo:lopl1:1,2012-03-02T13:49:00Z,28.8850,-90.0250,10.0,9.6,173.0,10.8,'11111222,11111222,11111222' 
LOOP,urn:ioos:station:wmo:lopl1:1,2012-03-02T14:04:00Z,28.8850,-90.0250,10.0,9.0,173.0,10.0,'11111222,11111222,11111222' 
LOOP,urn:ioos:station:wmo:lopl1:1,2012-03-02T14:19:00Z,28.8850,-90.0250,10.0,9.2,177.0,10.0,'11111222,11111222,11111222' 
LOOP,urn:ioos:station:wmo:lopl1:1,2012-03-02T14:34:00Z,28.8850,-90.0250,10.0,9.2,172.0,9.6,'11111222,11111222,11111222' 
LOOP,urn:ioos:station:wmo:lopl1:1,2012-03-02T14:49:00Z,28.8850,-90.0250,10.0,8.7,172.0,9.6,'11111222,11111222,11111222' 
LOOP,urn:ioos:station:wmo:lopl1:1,2012-03-02T15:04:00Z,28.8850,-90.0250,10.0,8.5,176.0,9.2,'11111222,11111222,11111222' 
LOOP,urn:ioos:station:wmo:lopl1:1,2012-03-02T15:19:00Z,28.8850,-90.0250,10.0,8.5,173.0,9.3,'11111222,11111222,11111222' 
LOOP,urn:ioos:station:wmo:lopl1:1,2012-03-02T15:34:00Z,28.8850,-90.0250,10.0,8.4,176.0,9.2,'11111222,11111222,11111222' 
LOOP,urn:ioos:station:wmo:lopl1:1,2012-03-02T15:49:00Z,28.8850,-90.0250,10.0,8.0,176.0,8.6,'11111222,11111222,11111222' 
LOOP,urn:ioos:station:wmo:lopl1:1,2012-03-02T16:04:00Z,28.8850,-90.0250,10.0,7.6,175.0,8.1,'11111222,11111222,11111222' 
LOOP,urn:ioos:station:wmo:lopl1:1,2012-03-02T16:19:00Z,28.8850,-90.0250,10.0,7.4,172.0,7.9,'11111222,11111222,11111222' 
LOOP,urn:ioos:station:wmo:lopl1:1,2012-03-02T16:39:00Z,28.8850,-90.0250,10.0,8.0,171.0,8.7,'11111222,11111222,11111222' 
LOOP,urn:ioos:station:wmo:lopl1:1,2012-03-02T16:54:00Z,28.8850,-90.0250,10.0,8.2,174.0,8.9,'11111222,11111222,11111222' 
LOOP,urn:ioos:station:wmo:lopl1:1,2012-03-02T17:09:00Z,28.8850,-90.0250,10.0,7.7,174.0,8.4,'11111222,11111222,11111222' 
LOOP,urn:ioos:station:wmo:lopl1:1,2012-03-02T17:24:00Z,28.8850,-90.0250,10.0,8.5,173.0,9.0,'11111222,11111222,11111222' 
LOOP,urn:ioos:station:wmo:lopl1:1,2012-03-02T17:39:00Z,28.8850,-90.0250,10.0,8.3,174.0,9.0,'11111222,11111222,11111222' 
LOOP,urn:ioos:station:wmo:lopl1:1,2012-03-02T17:54:00Z,28.8850,-90.0250,10.0,8.5,182.0,9.4,'11111222,11111222,11111222' 
LOOP,urn:ioos:station:wmo:lopl1:1,2012-03-02T18:09:00Z,28.8850,-90.0250,10.0,10.0,178.0,10.7,'11111222,11111222,11111222' 
LOOP,urn:ioos:station:wmo:lopl1:1,2012-03-02T18:24:00Z,28.8850,-90.0250,10.0,8.8,178.0,9.2,'11111222,11111222,11111222' 
LOOP,urn:ioos:station:wmo:lopl1:1,2012-03-02T18:39:00Z,28.8850,-90.0250,10.0,8.4,181.0,10.3,'11111222,11111222,11111222' 
LOOP,urn:ioos:station:wmo:lopl1:1,2012-03-02T18:54:00Z,28.8850,-90.0250,10.0,8.5,181.0,9.9,'11111222,11111222,11111222' 
LOOP,urn:ioos:station:wmo:lopl1:1,2012-03-02T19:09:00Z,28.8850,-90.0250,10.0,9.9,182.0,11.0,'11111222,11111222,11111222' 
LOOP,urn:ioos:station:wmo:lopl1:1,2012-03-02T19:24:00Z,28.8850,-90.0250,10.0,9.6,184.0,10.9,'11111222,11111222,11111222' 
LOOP,urn:ioos:station:wmo:lopl1:1,2012-03-02T19:39:00Z,28.8850,-90.0250,10.0,9.8,181.0,11.6,'11111222,11111222,11111222' 
LOOP,urn:ioos:station:wmo:lopl1:1,2012-03-02T19:54:00Z,28.8850,-90.0250,10.0,10.6,184.0,12.5,'11111222,11111222,11111222' 
LOOP,urn:ioos:station:wmo:lopl1:1,2012-03-02T20:09:00Z,28.8850,-90.0250,10.0,10.9,186.0,12.0,'11111222,11111222,11111222' 
LOOP,urn:ioos:station:wmo:lopl1:1,2012-03-02T20:24:00Z,28.8850,-90.0250,10.0,10.6,186.0,11.7,'11111222,11111222,11111222' 
LOOP,urn:ioos:station:wmo:lopl1:1,2012-03-02T20:39:00Z,28.8850,-90.0250,10.0,10.8,188.0,11.7,'11111222,11111222,11111222' 
LOOP,urn:ioos:station:wmo:lopl1:1,2012-03-02T20:54:00Z,28.8850,-90.0250,10.0,10.8,190.0,11.9,'11111222,11111222,11111222' 
LOOP,urn:ioos:station:wmo:lopl1:1,2012-03-02T21:09:00Z,28.8850,-90.0250,10.0,10.9,189.0,11.7,'11111222,11111222,11111222' 
LOOP,urn:ioos:station:wmo:lopl1:1,2012-03-02T21:24:00Z,28.8850,-90.0250,10.0,10.8,189.0,12.0,'11111222,11111222,11111222' 
LOOP,urn:ioos:station:wmo:lopl1:1,2012-03-02T21:39:00Z,28.8850,-90.0250,10.0,10.0,193.0,10.8,'11111222,11111222,11111222' 
LOOP,urn:ioos:station:wmo:lopl1:1,2012-03-02T21:54:00Z,28.8850,-90.0250,10.0,10.4,194.0,11.4,'11111222,11111222,11111222' 
LOOP,urn:ioos:station:wmo:lopl1:1,2012-03-02T22:09:00Z,28.8850,-90.0250,10.0,11.1,196.0,12.2,'11111222,11111222,11111222' 
LOOP,urn:ioos:station:wmo:lopl1:1,2012-03-02T22:24:00Z,28.8850,-90.0250,10.0,11.6,196.0,12.7,'11111222,11111222,11111222' 
LOOP,urn:ioos:station:wmo:lopl1:1,2012-03-02T22:39:00Z,28.8850,-90.0250,10.0,11.4,194.0,12.6,'11111222,11111222,11111222' 
LOOP,urn:ioos:station:wmo:lopl1:1,2012-03-02T22:54:00Z,28.8850,-90.0250,10.0,11.2,199.0,12.3,'11111222,11111222,11111222' 
LOOP,urn:ioos:station:wmo:lopl1:1,2012-03-02T23:09:00Z,28.8850,-90.0250,10.0,11.4,198.0,12.6,'11111222,11111222,11111222' 
LOOP,urn:ioos:station:wmo:lopl1:1,2012-03-02T23:24:00Z,28.8850,-90.0250,10.0,10.7,201.0,11.6,'11111222,11111222,11111222' 
LOOP,urn:ioos:station:wmo:lopl1:1,2012-03-02T23:39:00Z,28.8850,-90.0250,10.0,10.6,198.0,11.5,'11111222,11111222,11111222' 
LOOP,urn:ioos:station:wmo:lopl1:1,2012-03-02T23:54:00Z,28.8850,-90.0250,10.0,10.5,198.0,11.7,'11111222,11111222,11111222' 
LOOP,urn:ioos:station:wmo:lopl1:1,2012-03-03T00:09:00Z,28.8850,-90.0250,10.0,11.3,198.0,12.5,'11111222,11111222,11111222' 
LOOP,urn:ioos:station:wmo:lopl1:1,2012-03-03T00:29:00Z,28.8850,-90.0250,10.0,11.5,195.0,12.5,'11111222,11111222,11111222' 
LOOP,urn:ioos:station:wmo:lopl1:1,2012-03-03T00:44:00Z,28.8850,-90.0250,10.0,11.7,196.0,12.8,'11111222,11111222,11111222' 
LOOP,urn:ioos:station:wmo:lopl1:1,2012-03-03T00:59:00Z,28.8850,-90.0250,10.0,11.8,194.0,12.7,'11111222,11111222,11111222' 
LOOP,urn:ioos:station:wmo:lopl1:1,2012-03-03T01:14:00Z,28.8850,-90.0250,10.0,11.6,194.0,12.5,'11111222,11111222,11111222' 
LOOP,urn:ioos:station:wmo:lopl1:1,2012-03-03T01:29:00Z,28.8850,-90.0250,10.0,11.4,193.0,12.7,'11111222,11111222,11111222' 